"Pseudo-MPEC" for P11DwJQ

Created 2023 Mar 19 13:22:16 UT using Find_Orb

Click here for an explanation of pseudo-MPECs

 
 Astrometry: 
     P11DwJQ* C2023 03 17a7T_$[rl.I$$SVWJ'ffK'%2LRq/9.=WnBm@H_NK=j*q!au('S/A@F51
     P11DwJQ  C2023 03 17[_r,H2;eCca6)/P15m!?Zn_b08K+2`j_mlKb1n%s+b\5sK(tj!QKF51
     P11DwJQ  C2023 03 17o6gY(8dox.Tk%-eM28XtummFPhkQsp/]YkOC`'QnM+MZp!m/Yg^'F51
     P11DwJQ  C2023 03 17[^1#Ovy_6O*erEm#9tbgTXhGA!5Y(Jm'G/WGKp7T#LEJ)_DkR$nyF51
     P11DwJQ  C2023 03 17IiY,mQytR/QS4GkiGHoGLy,JDfZ]E5i8@i2LxcfdKU2MK3y$?I_KF52
     P11DwJQ  C2023 03 17%s([VMpF@j5RgpvSZ!AstrometrycFN4Y'lR*n7VM08.g?Xg_Hl?F52
     P11DwJQ IC2023 03 18Cbovvq_wyMV[?cehTu;?3J`S(Mlredacted;+O^$rsHwDbtx5*Y/L01
     P11DwJQ pC2023 03 18mDw@lASp'`yT-^]kb/l[WiZ?=X/G7o5oqUalcXs#1'0Id1MHF*k$L01
     P11DwJQ pC2023 03 18.83UO+$eOt;A]M:;click^uKa_'r2Osqhere@yON8b^Am`Gl[b3rL01
     P11DwJQ pC2023 03 186(3N#96=@.)J'Tj[)sMk1H8'/_sjHa^CP2FiH=c1G3lUX'_+T*#CL01
     P11DwJQ 1C2023 03 19.12304 15 05 09.31 -00 40 29.3    ~3J97 21.4 VXNEOCP033
     P11DwJQ 1C2023 03 19.12524 15 05 10.18 -00 40 38.0    ~3J97 21.3 VXNEOCP033
     P11DwJQ 1C2023 03 19.12744 15 05 11.04 -00 40 46.5    ~3J97 21.5 VXNEOCP033
     P11DwJQ 1C2023 03 19.12963 15 05 11.86 -00 40 55.0    ~3J97 21.4 VXNEOCP033
     P11DwJQ KC2023 03 19wf\qV*2rBU/!E1forscvtviO.p49%?/\-HxXX)jP%E-h,MovGl?wH21
     P11DwJQ KC2023 03 19T6eno^WQyyvW\@aaeHP@U*explanationmJ;pFlK6Ws+*6pIioyFH21
     P11DwJQ KC2023 03 19Q@am_dw%?'MCaBna4sQEl6;PL2y;'y;3s#ZXA1^`le]S-QoAJ@p7H21

Station data:
(033) Karl Schwarzschild Observatory, Tautenburg  (N50.980137 E11.711240)
   Germany.  Observers S. Melnikov, C. Hoegner, B. Stecklum. Measurer B.
   Stecklum. 1.34-m f/3 Schmidt + CCD.
(F51) Pan-STARRS 1, Haleakala  (N20.707234 W156.255910)  US/Hawaii.
   Observers J. Bulger, T. Lowe, A. Schultz, M. Willman. Measurers K.
   Chambers, S. Chastel, T. de Boer, L. Denneau, J. Fairlamb, H. Flewelling,
   M. Huber, C.-C. Lin, E. Magnier, Y. Ramanjooloo, R. Wainscoat, R. Weryk.
   1.8-m Ritchey-Chrétien + CCD.
(F52) Pan-STARRS 2, Haleakala  (N20.707382 W156.255910)  US/Hawaii.
   Observers J. Bulger, T. Dukes, T. Lowe, A. Schultz, M. Willman. Measurers
   K. Chambers, S. Chastel, T. de Boer, L. Denneau, J. Fairlamb, H.
   Flewelling, M. Huber, C.-C. Lin, E. Magnier, Y. Ramanjooloo, R. Wainscoat,
   R. Weryk. 1.8-m Ritchey-Chrétien + CCD.
(H21) Astronomical Research Observatory, Westfield  (N39.483054 W87.968270)
   US/Illinois.  Observer R. Holmes. Measurers S. Foglia, L. Buzzi, T.
   Linder, R. Holmes. 0.76-m f/3.0 astrograph + CCD0.81-m f/4.0 astrograph +
   CCD0.61-m f/4.5 astrograph + CCD0.40-m f/5.32 astrograph + CCD.
(L01) Višnjan Observatory, Tičan  (N45.290897 E13.749300)  Croatia.
   Observers K. Korlević, D. Pujagic, V. Dobos. Measurers D. Pujagic, K.
   Korlević. 1.0-m f/2.9 reflector + CCD.

Orbital elements:  P11DwJQ
   Perihelion 2023 Mar 21.45584 +/- 0.0352 TT = 10:56:24 (JD 2460024.95584)
Epoch 2023 Mar 19.0 TT = JDT 2460022.5   Earth MOID: 0.0803   Ma: 0.0213
M 359.39221064 +/- 0.011            (J2000 ecliptic)             AutoNEOCP
n   0.24748759 +/- 0.00305          Peri.  144.86975 +/- 0.10
a   2.51246732 +/- 0.0206           Node    39.79552 +/- 0.07
e   0.5726806 +/- 0.00335           Incl.    2.73194 +/- 0.012
P   3.98                   H 24.46  G  0.15   U  8.9
q 1.07362590 +/- 0.000404    Q 3.95130875 +/- 0.0409
From 17 observations 2023 Mar. 17-19 (44.2 hr); mean residual 0".34
Residuals in arcseconds: 
230317 F51  .11-  .06+    230318 L01  .57-  .38-    230319 033  .17+  .32+    
230317 F51  .08+  .09-    230318 L01  .49+  .61-    230319 033  .62-  .27+    
230317 F51  .07+  .05-    230318 L01  .86-  .33-    230319 H21  .11-  .05-    
230317 F51  .07-  .10+    230318 L01  .16+  .26-    230319 H21  .16-  .40-    
230317 F52  .07-  .10+    230319 033  .51+  .54+    230319 H21  .10+  .24-    
230317 F52  .15+  .00     230319 033  .42+  .33+    

Ephemerides (geocentric):
Date (UTC) HH   RA             Dec           delta  r     elong  mag " sig PA
---- --------  ------------   ------------  ------ ------ -----  --- --------
2023 03 19 13  15 08 03.965   -01 06 20.08  .11338 1.0739 131.4 21.6 .338 177
2023 03 19 14  15 08 21.211   -01 08 59.85  .11342 1.0739 131.4 21.6 .345 176
2023 03 19 15  15 08 38.436   -01 11 39.51  .11345 1.0739 131.4 21.6 .352 175
2023 03 19 16  15 08 55.642   -01 14 19.06  .11349 1.0739 131.3 21.6 .359 174
2023 03 19 17  15 09 12.828   -01 16 58.50  .11352 1.0739 131.3 21.6 .366 173
2023 03 19 18  15 09 29.994   -01 19 37.83  .11356 1.0738 131.3 21.6 .374 172
2023 03 19 19  15 09 47.140   -01 22 17.04  .11359 1.0738 131.2 21.6 .382 171
2023 03 19 20  15 10 04.266   -01 24 56.15  .11363 1.0738 131.2 21.6 .390 170
2023 03 19 21  15 10 21.372   -01 27 35.13  .11366 1.0738 131.2 21.6 .398 169
2023 03 19 22  15 10 38.458   -01 30 14.01  .11370 1.0738 131.1 21.6 .407 168
2023 03 19 23  15 10 55.523   -01 32 52.76  .11373 1.0738 131.1 21.6 .415 167
2023 03 20 00  15 11 12.569   -01 35 31.40  .11377 1.0738 131.1 21.7 .424 166
2023 03 20 01  15 11 29.594   -01 38 09.92  .11381 1.0738 131.0 21.7 .434 165
2023 03 20 02  15 11 46.599   -01 40 48.33  .11385 1.0738 131.0 21.7 .443 164
2023 03 20 03  15 12 03.584   -01 43 26.61  .11388 1.0738 131.0 21.7 .453 163
2023 03 20 04  15 12 20.549   -01 46 04.77  .11392 1.0737 130.9 21.7 .463 162
2023 03 20 05  15 12 37.493   -01 48 42.82  .11396 1.0737 130.9 21.7 .473 161
2023 03 20 06  15 12 54.416   -01 51 20.74  .11400 1.0737 130.9 21.7 .484 160
2023 03 20 07  15 13 11.320   -01 53 58.53  .11404 1.0737 130.8 21.7 .494 159
2023 03 20 08  15 13 28.202   -01 56 36.21  .11407 1.0737 130.8 21.7 .505 158
2023 03 20 09  15 13 45.064   -01 59 13.75  .11411 1.0737 130.8 21.7 .517 158
2023 03 20 10  15 14 01.906   -02 01 51.18  .11415 1.0737 130.7 21.7 .528 157
2023 03 20 11  15 14 18.727   -02 04 28.48  .11419 1.0737 130.7 21.7 .540 156
2023 03 20 12  15 14 35.527   -02 07 05.65  .11423 1.0737 130.7 21.7 .552 155
2023 03 20 13  15 14 52.307   -02 09 42.69  .11427 1.0737 130.6 21.7 .564 155
2023 03 20 14  15 15 09.066   -02 12 19.60  .11431 1.0737 130.6 21.7 .576 154
2023 03 20 15  15 15 25.804   -02 14 56.39  .11435 1.0737 130.6 21.7 .589 153
2023 03 20 16  15 15 42.521   -02 17 33.04  .11439 1.0737 130.5 21.7 .602 152
2023 03 20 17  15 15 59.218   -02 20 09.57  .11443 1.0737 130.5 21.7 .615 152
2023 03 20 18  15 16 15.893   -02 22 45.96  .11448 1.0737 130.5 21.7 .629 151
2023 03 20 19  15 16 32.548   -02 25 22.22  .11452 1.0737 130.4 21.7 .643 150
2023 03 20 20  15 16 49.182   -02 27 58.34  .11456 1.0737 130.4 21.7 .656 150
2023 03 20 21  15 17 05.794   -02 30 34.34  .11460 1.0737 130.4 21.7 .671 149
2023 03 20 22  15 17 22.386   -02 33 10.19  .11464 1.0736 130.3 21.7 .685 149
2023 03 20 23  15 17 38.957   -02 35 45.92  .11469 1.0736 130.3 21.7 .700 148
2023 03 21 00  15 17 55.506   -02 38 21.50  .11473 1.0736 130.3 21.7 .715 147
2023 03 21 01  15 18 12.035   -02 40 56.95  .11477 1.0736 130.2 21.7 .730 147
2023 03 21 02  15 18 28.542   -02 43 32.26  .11481 1.0736 130.2 21.7 .745 146
2023 03 21 03  15 18 45.028   -02 46 07.44  .11486 1.0736 130.2 21.7 .761 146
2023 03 21 04  15 19 01.493   -02 48 42.47  .11490 1.0736 130.1 21.7 .776 145
2023 03 21 05  15 19 17.937   -02 51 17.36  .11495 1.0736 130.1 21.7 .793 145
2023 03 21 06  15 19 34.359   -02 53 52.12  .11499 1.0736 130.1 21.7 .809 144
2023 03 21 07  15 19 50.760   -02 56 26.73  .11504 1.0736 130.1 21.7 .825 144
2023 03 21 08  15 20 07.140   -02 59 01.20  .11508 1.0736 130.0 21.7 .842 143
2023 03 21 09  15 20 23.498   -03 01 35.53  .11513 1.0736 130.0 21.7 .859 143
2023 03 21 10  15 20 39.835   -03 04 09.71  .11517 1.0736 130.0 21.7 .876 142
2023 03 21 11  15 20 56.151   -03 06 43.75  .11522 1.0736 129.9 21.7 .893 142
2023 03 21 12  15 21 12.445   -03 09 17.65  .11526 1.0736 129.9 21.7 .911 141